• In Belarus
  • List of Countries
  • For 7 days
  • Water Temperature
  • Satellite Maps
  • Weather Map
  • Weather Widgets
  • user-avatar
    Login

    Hourly Weather Phohan

    Today, 19 August, Sunday

    Time Temperature Precipitation Wind Pressure Humidity
    00:00 +21°C° 0 mm 1 mps 754 mmHg 82%
    01:00 +21°C° 0 mm 1 mps 754 mmHg 83%
    02:00 +21°C° 0 mm 1 mps 754 mmHg 84%
    03:00 +20°C° 0 mm 1 mps 754 mmHg 84%
    04:00 +20°C° 0 mm 1 mps 754 mmHg 84%
    05:00 +20°C° 0 mm 1 mps 754 mmHg 85%
    06:00 +20°C° 0 mm 1 mps 755 mmHg 86%
    07:00 +22°C° 0 mm 1 mps 755 mmHg 77%
    08:00 +23°C° 0 mm 0 mps 755 mmHg 69%
    09:00 +26°C° 0 mm 0 mps 755 mmHg 60%
    10:00 +29°C° 0 mm 1 mps 755 mmHg 55%
    11:00 +31°C° 0 mm 1 mps 754 mmHg 50%
    12:00 +33°C° 0 mm 1 mps 754 mmHg 46%
    13:00 +34°C° 0 mm 2 mps 754 mmHg 45%
    14:00 +32°C° 0 mm 2 mps 754 mmHg 45%
    15:00 +33°C° 0 mm 3 mps 754 mmHg 44%
    16:00 +31°C° 0 mm 3 mps 753 mmHg 51%
    17:00 +30°C° 0 mm 2 mps 753 mmHg 57%
    18:00 +28°C° 0 mm 2 mps 753 mmHg 64%
    19:00 +27°C° 0 mm 2 mps 754 mmHg 70%
    20:00 +25°C° 0 mm 1 mps 754 mmHg 76%
    21:00 +24°C° 0 mm 1 mps 754 mmHg 82%
    22:00 +23°C° 0 mm 1 mps 754 mmHg 84%
    23:00 +23°C° 0 mm 1 mps 754 mmHg 86%

    Tomorrow, 20 August, Monday

    Time Temperature Precipitation Wind Pressure Humidity
    00:00 +23°C° 0 mm 1 mps 754 mmHg 87%
    01:00 +22°C° 0 mm 1 mps 754 mmHg 88%
    02:00 +22°C° 0 mm 1 mps 754 mmHg 89%
    03:00 +22°C° 0 mm 1 mps 753 mmHg 90%
    04:00 +22°C° 0 mm 1 mps 753 mmHg 90%
    05:00 +22°C° 0 mm 1 mps 753 mmHg 91%
    06:00 +22°C° 0 mm 1 mps 753 mmHg 91%
    07:00 +24°C° 0 mm 1 mps 753 mmHg 83%
    08:00 +27°C° 0 mm 1 mps 753 mmHg 74%
    09:00 +29°C° 0 mm 1 mps 753 mmHg 66%
    10:00 +30°C° 0 mm 1 mps 753 mmHg 61%
    11:00 +32°C° 0 mm 2 mps 752 mmHg 57%
    12:00 +34°C° 0 mm 2 mps 752 mmHg 52%
    13:00 +34°C° 0 mm 3 mps 752 mmHg 52%
    14:00 +34°C° 0 mm 3 mps 751 mmHg 51%
    15:00 +34°C° 0 mm 4 mps 751 mmHg 51%
    16:00 +33°C° 0 mm 3 mps 750 mmHg 56%
    17:00 +31°C° 0 mm 3 mps 750 mmHg 62%
    18:00 +29°C° 0 mm 3 mps 750 mmHg 67%
    19:00 +28°C° 0 mm 2 mps 750 mmHg 73%
    20:00 +26°C° 0 mm 2 mps 750 mmHg 79%
    21:00 +24°C° 0 mm 2 mps 751 mmHg 84%
    22:00 +24°C° 0 mm 1 mps 751 mmHg 86%
    23:00 +24°C° 0 mm 1 mps 751 mmHg 87%

    Day after tomorrow, 21 August, Tuesday

    Time Temperature Precipitation Wind Pressure Humidity
    00:00 +23°C° 0 mm 1 mps 751 mmHg 89%
    01:00 +23°C° 0 mm 1 mps 750 mmHg 89%
    02:00 +23°C° 0 mm 1 mps 750 mmHg 89%
    03:00 +23°C° 0 mm 1 mps 750 mmHg 89%
    04:00 +23°C° 0 mm 1 mps 750 mmHg 89%
    05:00 +23°C° 0 mm 1 mps 750 mmHg 89%
    06:00 +23°C° 0 mm 1 mps 750 mmHg 89%
    07:00 +26°C° 0 mm 1 mps 750 mmHg 81%
    08:00 +28°C° 0 mm 1 mps 750 mmHg 73%
    09:00 +31°C° 0 mm 1 mps 750 mmHg 65%
    10:00 +32°C° 0 mm 1 mps 750 mmHg 62%
    11:00 +34°C° 0 mm 2 mps 750 mmHg 60%
    12:00 +35°C° 0 mm 3 mps 749 mmHg 58%
    13:00 +35°C° 0 mm 3 mps 749 mmHg 57%
    14:00 +35°C° 0 mm 3 mps 748 mmHg 56%
    15:00 +36°C° 0 mm 3 mps 748 mmHg 55%
    16:00 +35°C° 0 mm 3 mps 748 mmHg 59%
    17:00 +34°C° 0 mm 2 mps 747 mmHg 63%
    18:00 +32°C° 0 mm 2 mps 747 mmHg 67%
    19:00 +31°C° 0 mm 2 mps 748 mmHg 72%
    20:00 +29°C° 0 mm 2 mps 748 mmHg 77%
    21:00 +28°C° 0 mm 2 mps 748 mmHg 82%
    22:00 +27°C° 0 mm 2 mps 748 mmHg 84%
    23:00 +27°C° 0 mm 1 mps 748 mmHg 86%

    22 August, Wednesday

    Time Temperature Precipitation Wind Pressure Humidity
    00:00 +27°C° 0 mm 1 mps 748 mmHg 88%
    01:00 +27°C° 0 mm 1 mps 748 mmHg 88%
    02:00 +27°C° 0 mm 2 mps 748 mmHg 88%
    03:00 +27°C° 0 mm 2 mps 748 mmHg 88%
    04:00 +27°C° 0 mm 2 mps 748 mmHg 88%
    05:00 +27°C° 0 mm 3 mps 748 mmHg 89%
    06:00 +27°C° 0 mm 3 mps 748 mmHg 89%
    07:00 +28°C° 0.1 mm 4 mps 749 mmHg 84%
    08:00 +30°C° 0.1 mm 5 mps 749 mmHg 79%
    09:00 +32°C° 0.1 mm 6 mps 749 mmHg 73%
    10:00 +32°C° 0.1 mm 6 mps 749 mmHg 72%
    11:00 +33°C° 0.1 mm 7 mps 749 mmHg 71%
    12:00 +33°C° 0.1 mm 7 mps 749 mmHg 70%
    13:00 +32°C° 1.3 mm 7 mps 749 mmHg 75%
    14:00 +30°C° 1.3 mm 7 mps 748 mmHg 79%
    15:00 +29°C° 1.3 mm 7 mps 748 mmHg 84%
    16:00 +29°C° 1 mm 7 mps 747 mmHg 85%
    17:00 +29°C° 1 mm 8 mps 746 mmHg 86%
    18:00 +28°C° 1 mm 8 mps 746 mmHg 87%
    19:00 +28°C° 1.8 mm 9 mps 745 mmHg 88%
    20:00 +28°C° 1.8 mm 10 mps 745 mmHg 88%
    21:00 +28°C° 1.8 mm 11 mps 744 mmHg 89%
    22:00 +28°C° 2.8 mm 11 mps 743 mmHg 89%
    23:00 +28°C° 2.8 mm 12 mps 742 mmHg 90%

    23 August, Thursday

    Time Temperature Precipitation Wind Pressure Humidity
    00:00 +28°C° 2.8 mm 13 mps 741 mmHg 90%
    01:00 +28°C° 3 mm 14 mps 740 mmHg 90%
    02:00 +28°C° 3 mm 14 mps 739 mmHg 90%
    03:00 +28°C° 3 mm 15 mps 738 mmHg 90%
    04:00 +28°C° 5.4 mm 15 mps 737 mmHg 91%
    05:00 +28°C° 5.4 mm 16 mps 737 mmHg 92%
    06:00 +28°C° 5.4 mm 16 mps 736 mmHg 92%
    07:00 +28°C° 1.8 mm 15 mps 737 mmHg 91%
    08:00 +28°C° 1.8 mm 15 mps 737 mmHg 91%
    09:00 +28°C° 1.8 mm 14 mps 738 mmHg 90%
    10:00 +29°C° 0.2 mm 13 mps 739 mmHg 86%
    11:00 +31°C° 0.2 mm 12 mps 739 mmHg 83%
    12:00 +32°C° 0.2 mm 11 mps 740 mmHg 79%
    13:00 +32°C° 0.2 mm 10 mps 741 mmHg 77%
    14:00 +32°C° 0.2 mm 9 mps 741 mmHg 76%
    15:00 +33°C° 0.2 mm 9 mps 741 mmHg 75%
    16:00 +32°C° 0.1 mm 8 mps 742 mmHg 76%
    17:00 +32°C° 0.1 mm 7 mps 742 mmHg 77%
    18:00 +32°C° 0.1 mm 6 mps 742 mmHg 78%
    19:00 +30°C° 0 mm 5 mps 743 mmHg 81%
    20:00 +29°C° 0 mm 4 mps 743 mmHg 84%
    21:00 +28°C° 0 mm 3 mps 744 mmHg 87%
    22:00 +28°C° 0 mm 3 mps 744 mmHg 88%
    23:00 +27°C° 0 mm 3 mps 744 mmHg 89%

    24 August, Friday

    Time Temperature Precipitation Wind Pressure Humidity
    00:00 +27°C° 0 mm 3 mps 744 mmHg 89%
    01:00 +27°C° 0 mm 3 mps 744 mmHg 90%
    02:00 +26°C° 0 mm 4 mps 744 mmHg 90%
    03:00 +26°C° 0 mm 4 mps 745 mmHg 91%
    04:00 +26°C° 0 mm 4 mps 745 mmHg 92%
    05:00 +26°C° 0 mm 4 mps 746 mmHg 92%
    06:00 +26°C° 0 mm 4 mps 746 mmHg 93%
    07:00 +27°C° 0 mm 4 mps 746 mmHg 87%
    08:00 +29°C° 0 mm 4 mps 747 mmHg 80%
    09:00 +30°C° 0 mm 4 mps 747 mmHg 74%
    10:00 +32°C° 0 mm 4 mps 747 mmHg 68%
    11:00 +34°C° 0 mm 5 mps 747 mmHg 63%
    12:00 +35°C° 0 mm 5 mps 747 mmHg 57%
    13:00 +35°C° 0 mm 6 mps 747 mmHg 57%
    14:00 +36°C° 0 mm 6 mps 747 mmHg 56%
    15:00 +36°C° 0 mm 6 mps 747 mmHg 56%
    16:00 +34°C° 0.2 mm 6 mps 748 mmHg 63%
    17:00 +33°C° 0.2 mm 5 mps 748 mmHg 71%
    18:00 +32°C° 0.2 mm 5 mps 748 mmHg 78%
    19:00 +30°C° 0 mm 4 mps 749 mmHg 81%
    20:00 +29°C° 0 mm 4 mps 749 mmHg 83%
    21:00 +28°C° 0 mm 3 mps 750 mmHg 86%
    22:00 +28°C° 0 mm 3 mps 750 mmHg 87%
    23:00 +27°C° 0 mm 3 mps 750 mmHg 88%
    Show more